Weather History for LIPZ - April, 2014

Change the Weather History Date:

Saturday, April 19, 2014

  Actual Average Record
Temperature  
Mean Temperature 59 °F -  
Max Temperature 66 °F 67 °F 73 °F (2013)
Min Temperature 52 °F 51 °F 39 °F (1997)
Degree Days  
Heating Degree Days 6    
Growing Degree Days 9 (Base 50)    
Moisture  
Dew Point 43 °F    
Average Humidity 58    
Maximum Humidity 77    
Minimum Humidity 28    
Precipitation  
Precipitation 0.00 in 0.09 in - ()
Sea Level Pressure  
Sea Level Pressure 29.71 in    
Wind  
Wind Speed 10 mph ()    
Max Wind Speed 18 mph    
Max Gust Speed -    
Visibility 7.4 miles    
Events Rain    
Averages and records for this station are not official NWS values.
T = Trace of Precipitation, MM = Missing Value Source: Averaged Metar Reports

Daily Weather History Graph

Daily Weather History Graph

Search for Another Location

Airport or City:

Trip Planner

Search our weather history database for the weather conditions in past years. The results will help you decide how hot, cold, wet, or windy it might be!

Date:

Astronomy

Apr. 19, 2014 Rise Set
Actual Time 6:18 AM CEST 8:01 PM CEST
Civil Twilight 5:47 AM CEST 8:33 PM CEST
Nautical Twilight 5:09 AM CEST 9:11 PM CEST
Astronomical Twilight 4:27 AM CEST 9:53 PM CEST
Moon No Moon Rise 9:13 AM CEST (4/19)
Length of Visible Light 14h 45m
Length of Day
13h 43m
Waning Gibbous, 81% of the Moon is Illuminated
Apr 19
Waning Gibbous
Apr 22
Last Quarter
Apr 29
New
May 7
First Quarter
May 14
Full

Hourly Weather History & Observations

Time (CEST) Temp. Dew Point Humidity Pressure Visibility Wind Dir Wind Speed Gust Speed Precip Events Conditions
12:20 AM 57.2 °F 46.4 °F 67% 29.68 in 6.2 mi Variable 3.5 mph - N/A   Mostly Cloudy
12:50 AM 59.0 °F 42.8 °F 55% 29.68 in 6.2 mi Calm Calm - N/A   Mostly Cloudy
1:20 AM 57.2 °F 41.0 °F 55% 29.68 in 6.2 mi NNE 11.5 mph - N/A   Mostly Cloudy
1:50 AM 57.2 °F 41.0 °F 55% 29.68 in 6.2 mi NNE 13.8 mph - N/A Rain Light Rain
2:00 AM 57 °F 39 °F 40% 29.69 in 11 mi NNE 11.5 mph - -   Partly Cloudy
2:20 AM 55.4 °F 41.0 °F 58% 29.68 in 6.2 mi NNE 10.4 mph - N/A   Mostly Cloudy
2:50 AM 55.4 °F 42.8 °F 63% 29.68 in 6.2 mi NNE 11.5 mph - N/A   Mostly Cloudy
3:20 AM 55.4 °F 42.8 °F 63% 29.68 in 6.2 mi NNE 9.2 mph - N/A   Mostly Cloudy
3:50 AM 55.4 °F 42.8 °F 63% 29.68 in 6.2 mi NNE 11.5 mph - N/A   Mostly Cloudy
4:20 AM 53.6 °F 42.8 °F 67% 29.68 in 6.2 mi NNE 11.5 mph - N/A   Mostly Cloudy
4:50 AM 53.6 °F 46.4 °F 77% 29.68 in 6.2 mi NNE 13.8 mph - N/A Rain Light Rain
5:00 AM 54 °F 46 °F 66% 29.68 in 12 mi North 13.8 mph - - Rain Light Rain
5:20 AM 53.6 °F 46.4 °F 77% 29.68 in 6.2 mi North 18.4 mph - N/A   Mostly Cloudy
6:20 AM 53.6 °F 46.4 °F 77% 29.68 in 6.2 mi North 15.0 mph - N/A   Mostly Cloudy
6:50 AM 53.6 °F 46.4 °F 77% 29.68 in 6.2 mi North 16.1 mph - N/A   Mostly Cloudy
7:20 AM 53.6 °F 44.6 °F 72% 29.68 in 6.2 mi North 16.1 mph - N/A   Mostly Cloudy
7:50 AM 53.6 °F 44.6 °F 72% 29.68 in 6.2 mi North 15.0 mph - N/A   Mostly Cloudy
8:00 AM 54 °F 44 °F 60% 29.70 in 9 mi North 16.1 mph - -   Mostly Cloudy
8:20 AM 53.6 °F 44.6 °F 72% 29.68 in 6.2 mi NNE 15.0 mph - N/A   Mostly Cloudy
8:50 AM 55.4 °F 42.8 °F 63% 29.71 in 6.2 mi NNE 17.3 mph - N/A   Mostly Cloudy
9:20 AM 55.4 °F 44.6 °F 67% 29.71 in 6.2 mi NE 16.1 mph - N/A   Mostly Cloudy
9:50 AM 55.4 °F 42.8 °F 63% 29.71 in 6.2 mi NNE 12.7 mph - N/A   Mostly Cloudy
10:50 AM 59.0 °F 41.0 °F 51% 29.74 in 6.2 mi NE 17.3 mph - N/A   Mostly Cloudy
11:20 AM 57.2 °F 39.2 °F 51% 29.71 in 6.2 mi NNE 15.0 mph - N/A   Mostly Cloudy
11:50 AM 59.0 °F 41.0 °F 51% 29.74 in 6.2 mi NNE 16.1 mph - N/A   Mostly Cloudy
12:20 PM 60.8 °F 42.8 °F 52% 29.74 in 6.2 mi NNE 15.0 mph - N/A   Mostly Cloudy
12:50 PM 62.6 °F 41.0 °F 45% 29.74 in 6.2 mi NNE 13.8 mph - N/A   Scattered Clouds
1:20 PM 62.6 °F 41.0 °F 45% 29.74 in 6.2 mi NE 15.0 mph - N/A   Scattered Clouds
1:50 PM 64.4 °F 41.0 °F 42% 29.71 in 6.2 mi NE 17.3 mph - N/A   Scattered Clouds
2:00 PM 62 °F 39 °F 31% 29.75 in 16 mi NE 16.1 mph - -   Partly Cloudy
2:20 PM 64.4 °F 41.0 °F 42% 29.74 in 6.2 mi NNE 16.1 mph - N/A   Partly Cloudy
2:50 PM 64.4 °F 42.8 °F 45% 29.74 in 6.2 mi ENE 12.7 mph - N/A   Partly Cloudy
3:20 PM 64.4 °F 41.0 °F 42% 29.71 in 6.2 mi NE 12.7 mph - N/A   Partly Cloudy
3:50 PM 66.2 °F 41.0 °F 40% 29.71 in 6.2 mi ENE 10.4 mph - N/A   Partly Cloudy
4:20 PM 64.4 °F 41.0 °F 42% 29.71 in 6.2 mi ENE 12.7 mph - N/A   Partly Cloudy
4:50 PM 64.4 °F 41.0 °F 42% 29.71 in 6.2 mi ENE 6.9 mph - N/A   Scattered Clouds
5:00 PM 65 °F 40 °F 28% 29.71 in 16 mi ENE 6.9 mph - -   Partly Cloudy
5:20 PM 64.4 °F 41.0 °F 42% 29.71 in 6.2 mi ENE 11.5 mph - N/A   Partly Cloudy
5:50 PM 64.4 °F 41.0 °F 42% 29.71 in 6.2 mi ENE 11.5 mph - N/A   Scattered Clouds
6:20 PM 64.4 °F 42.8 °F 45% 29.71 in - ENE 9.2 mph - N/A   Clear
6:50 PM 64.4 °F 42.8 °F 45% 29.71 in - NE 9.2 mph - N/A   Clear
7:20 PM 60.8 °F 46.4 °F 59% 29.71 in - ENE 13.8 mph - N/A   Clear
7:50 PM 60.8 °F 46.4 °F 59% 29.71 in - NE 6.9 mph - N/A   Clear
8:00 PM 60 °F 46 °F 50% 29.72 in 16 mi NE 8.1 mph - -   Clear
8:20 PM 59.0 °F 46.4 °F 63% 29.71 in - NE 6.9 mph - N/A   Clear
8:50 PM 59.0 °F 46.4 °F 63% 29.71 in - NNE 6.9 mph - N/A   Clear
9:20 PM 57.2 °F 46.4 °F 67% 29.71 in - NNE 5.8 mph - N/A   Clear
9:50 PM 55.4 °F 46.4 °F 72% 29.71 in - North 4.6 mph - N/A   Clear
10:20 PM 55.4 °F 48.2 °F 77% 29.71 in - Variable 2.3 mph - N/A   Clear
10:50 PM 55.4 °F 46.4 °F 72% 29.71 in - NNE 4.6 mph - N/A   Clear
11:00 PM 55 °F 47 °F 68% 29.73 in 12 mi NNE 4.6 mph - -  
11:20 PM 55.4 °F 48.2 °F 77% 29.71 in - Variable 3.5 mph - N/A   Clear
11:50 PM 53.6 °F 46.4 °F 77% 29.71 in - Calm Calm - N/A   Clear